Location: Lafig�re
(44.4503°N, 4.0357°E)
Time: 00:51:13
(UTC+00:00)

Transit 4A - Pass Details

Date: 27 January 2021
Orbit: 866 x 979 km, 66.8° (Epoch: 24 February)

Event Time Altitude Azimuth Distance (km) Brightness Sun altitude
Rises 23:33:55 0° 327° (NNW) 3,656 - -63.3°
Reaches altitude 10° 23:39:19 10° 5° (N) 2,679 - -63.5°
Maximum altitude 23:40:35 11° 17° (NNE) 2,628 - -63.5°
Drops below altitude 10° 23:41:51 10° 29° (NNE) 2,663 - -63.6°
Sets 23:47:07 0° 67° (ENE) 3,569 - -63.7°
